Погода в Дашогузе

Поиск расширенной информации на нашем сайте:

Полезная информация:

Новости сайта



02.01.2020
Опубликован Долгосрочный прогноз погоды по городам России и ближнего зарубежья на январь 2020 года.
Карты: Прогноз на январь и февраль 2020 года, Сравнение прогнозируемой аномалии приземной температуры воздуха на январь 2020 года по разным моделям.




Погода в Дашогузе - сегодня

Время (UTC), дата Ветер
(°,м/с) 
Видим.   Явления Облачность Т
(°С)
Тd
(°С)
f(%) Тe
(°С)
Pmin
(гПа)
dP
(гПа)
Po
(мм)
O2
(г/м3)
Тmin Tmax R s Состояние
почвы
12 09.08.20 260 (З) 10 км    3/3 2000 м 
[Cu hum]
+37.2 +9.5 19 +38  1001.9  -1.1  745  262           
15 09.08.20 320 (СЗ) 10 км    3/0 средняя 
[Ac lent]
+33.4 +7.4 20 +33  1001.7  -0.3  744  266    +37.8      полностью
покрыта
пылью 
18 09.08.20 240 (ЮЗ) 10 км    ясно 
+25.6 +12.3 44 +30  1002.5  0.6  745  272    +37.8       
21 09.08.20 190 (Ю) 10 км    ясно 
+22.4 +12.4 53 +27  1002.2  -0.5  744  275           
00 10.08.20 270 (З) 10 км    ясно 
+22.2 +11.1 49 +25  1002.9  0.7  745  276           
03 10.08.20 010 (С) 10 км    5/0 средняя 
[Ac trans]
+23.6 +12.2 49 +28  1004.4  1.6  746  274  +20.3        влажная 
06 10.08.20 340 (С) 10 км    3/0 средняя 
[Ac cuf]
+29.5 +11.1 32 +32  1005.3  747  270  +20.3         
09 10.08.20 330 (СЗ) 10 км    3/0 средняя 
[Ac cuf]
+23.6 +13.7 54 +30  1005.2  747  274           
12 10.08.20 340 (С) 10 км    ясно 
+33.5 +12.2 27 +38  1004.7  -0.4  747  266           
15 10.08.20 350 (С) 10 км    ясно 
+29.4 +11.4 33 +33  1005.4  0.5  747  270    +34.1       
18 10.08.20 360 (С) 10 км    ясно 
+24.4 +12.6 48 +29  1006.7  1.2  748  274    +34.1       
21 10.08.20 330 (СЗ) 10 км    ясно 
+23 +12.7 52 +28  1006.7  -0.1  748  275           
00 11.08.20 360 (С) 10 км    ясно 
+20 +10.6 55 +22  1007.6  0.8  748  279           
03 11.08.20 010 (С) 10 км    ясно 
+21.4 +9.5 47 +22  1009.3  1.7  750  278  +18.5        влажная 
06 11.08.20 330 (СЗ) 10 км    ясно 
+28.6 +8.9 29 +29  1009.4  0.3  750  272  +18.5         
09 11.08.20 340 (С) 10 км    ясно 
+32 +8.9 24 +32  1008.2  -1  749  269           
12 11.08.20 310 (СЗ) 10 км    ясно 
+33 +8.4 22 +33  1007.1  -1.1  748  268           
15 11.08.20 020 (С) 10 км    ясно 
+30.7 +8.9 26 +31  1007.1  -0.1  748  270    +33.4       
18 11.08.20 040 (СВ) 10 км    ясно 
+24.5 +11.7 45 +28  1007.6  0.4  749  275    +33.4       
21 11.08.20 нст () 10 км    ясно 
+22.6 +10.6 47 +25  1007.2  -0.5  748  277           
00 12.08.20 030 (СВ) 10 км    ясно 
+22.4 +9.9 45 +23  1007.5  0.3  748  277           
03 12.08.20 //0 (С) //  н/о    н/о 
                 
06 12.08.20 230 (ЮЗ) 10 км    8/0 верхняя 
[Ci sp]
+29.8 +11.1 31 +32  1008.6  0.5  749  270  +19.4      <0.5  мокрый или
старый снег
50-90% 
09 12.08.20 170 (Ю) 10 км    9/0 2000 м 
+32.5 +9.7 25 +33    -0.2             
12 12.08.20 080 (В) 10 км    9/0 средняя, верхняя 
[Ac trans|Ci sp]
+32.4 +7.8 22 +32  1007.3  -1  749  268           
Время (UTC), дата Ветер
(°,м/с) 
Видим.   Явления Облачность Т
(°С)
Тd
(°С)
f(%) Тe
(°С)
Pmin
(гПа)
dP
(гПа)
Po
(мм)
O2
(г/м3)
Тmin Tmax R s Состояние
почвы

Для получения пояснительной информации подведите курсор к названию столбца.

ПОГОДА в Дашогузе - архив

Всё, что Вы хотите узнать о погоде в Дашогузе - удобно и подробно!

Выберите нужную дату (начиная с 1 января 2019* года) и нажмите кнопку "Найти".
Будут отображены архивные сводки погоды по пункту Дашогуз, начиная с указанной даты.


Отображать данные в формате CSV (для использования в таблицах Excel)


Внимание! Наш архив погоды предназначен исключительно для личного некоммерческого использования в познавательных целях. Если Вам необходимы официальные справки о состоянии погоды (для производственных, юридических, коммерческих и т.п. целей), обращайтесь в органы Росгидромета.

*Примечание: данная дата относится к архиву по метеостанциям СССР (Россия, СНГ, Балтия).
Архив по метеостанциям Зарубежной Европы и Азии (кроме Китая) хранится 10 дней, по другим регионам земного шара (Китай, Африка, Америка, Австралия, Океания) - 1 день.

Дашогуз - район местоположения метеостанции


Название, широта, долгота, высота метеостанции:
Дашогуз (Ташауз) 41.8°ш. 59.8°д. 82 м над ур. моря [Туркменистан]

Дополнительная информация

В oтличие oт бoльшинства пoгoдных сайтoв мы публикуем пoдрoбную метеoинфoрмацию в детальнoм прoфессиoнальнoм фoрмате.

Характеристики температуры и влажнoсти вoздуха измеряются на высoте 2 м в тени вдали oт зданий и деревьев.
Скoрoсть ветра измеряется на высoте 10 м (на урoвне рoста челoвека скoрoсть ветра ниже в 1.5-2 раза). Если метеoстанция нахoдится в гoрoде или в лесу, тo скoрoсть ветра занижена на 2-4 м/с пo сравнению с oткрытым местoм. Скoрoсть ветра над акватoриями крупных рек и oзёр, а также на вершинах хoлмoв на 2-5 м/с выше, чем в oбычных услoвиях.
Атмoсфернoе давление в разных тoчках местнoсти мoжет значительнo oтличаться oт давления на метеoстанции, в зависимoсти oт услoвий рельефа (при пoдъёме на 10 м давление пoнижается примернo на 1 мм рт.ст.).